User: anonymous   Login
Location: South Tamworth Observatory
(43.8246°N, 71.3026°W)
Time: 11:52:27
(UTC-05:00)
Language:

Cosmos 2208 Rocket - Orbit

View from above orbital plane
View from above orbital plane
View from above satellite
View from above satellite

Ground track
Ground track

The orbit data is extracted from the following two-line orbital elements,

1 22081U 92053B   17056.88450392  .00000110  00000-0  49222-4 0  9995
2 22081  74.0433 280.8457 0036988 277.0411  82.6534 14.33366500282894
Epoch (UTC): 25 February 2017 21:13:41
Eccentricity: 0.0036988
inclination: 74.0433°
perigee height: 754 km
apogee height: 807 km
right ascension of ascending node: 280.8457°
argument of perigee: 277.0411°
revolutions per day: 14.33366500
mean anomaly at epoch: 82.6534°
orbit number at epoch: 28289

The dashed part of the orbit path shows where the satellite is in the earth's shadow,  

DLR